Wind_Speed
3 4 5 5 5 6 7 7 7 7 7 7 7 7 7 7 7 7 7 7 7 7 6 6 5 4 4 4 4 4 4 5 6 6 6 7 7 7 8 8 7 8 8
3 4 4 5 6 6 7 7 8 8 8 8 8 8 8 8 8 8 7 7 7 7 7 6 5 5 5 4 5 5 5 5 6 6 7 7 8 8 9 9 8 8 9
2 3 4 5 5 6 7 8 8 8 9 9 9 9 9 9 8 8 8 8 7 8 7 7 6 6 5 5 5 5 5 6 6 6 7 8 8 9 9 10 9 9 9
2 3 4 4 5 6 7 7 8 9 10 10 9 10 10 9 9 9 8 8 8 8 8 7 6 6 5 5 6 6 6 6 7 7 7 8 8 9 10 10 10 10 9
3 4 4 5 6 6 7 7 9 10 10 10 10 10 10 10 10 9 9 9 9 8 8 7 6 6 6 6 6 6 6 7 7 7 8 8 9 10 10 10 11 11 10
3 4 4 5 6 6 7 8 9 10 10 10 10 11 10 10 10 10 10 10 10 9 9 8 7 7 7 6 6 6 6 7 7 7 8 8 8 10 11 10 10 11 11
3 4 4 5 6 7 8 9 10 10 10 11 10 11 11 10 10 10 11 11 11 10 10 9 8 7 7 7 7 6 6 7 7 8 8 8 8 9 10 11 11 11 11
3 4 4 5 6 7 8 9 10 10 11 11 11 11 11 11 11 11 11 11 11 11 10 10 9 8 7 7 7 7 7 7 7 8 8 8 9 9 10 11 11 12 11
3 4 5 5 6 7 8 9 10 11 11 11 11 11 12 12 12 12 12 12 12 11 11 10 9 8 8 7 7 7 8 7 8 8 9 9 9 10 11 11 12 12 12
3 4 5 5 6 7 8 9 10 11 11 11 12 12 12 12 12 12 12 12 12 12 11 10 9 8 7 7 7 7 8 8 8 9 9 10 10 10 11 11 12 12 12
3 4 4 5 6 7 8 9 10 11 11 11 11 11 12 12 12 12 12 12 12 12 11 10 9 8 7 7 6 7 7 8 8 9 9 10 11 10 11 12 12 13 13
3 4 4 5 6 7 8 9 10 11 11 11 11 12 12 12 12 13 13 13 13 12 12 10 9 8 6 6 5 6 7 8 8 9 9 10 11 11 12 12 13 14 13
3 4 5 6 6 7 8 9 10 11 12 11 12 12 12 13 13 13 13 13 13 13 13 11 9 8 6 5 5 5 6 7 8 8 9 10 11 12 12 12 13 14 14
3 3 4 5 6 7 8 9 10 11 12 12 12 12 12 13 13 14 14 14 14 14 13 11 10 8 6 4 4 4 4 5 7 8 9 10 11 12 12 13 13 14 14
2 3 4 5 6 6 8 9 10 11 11 12 12 12 12 13 14 14 14 14 15 14 13 12 10 8 6 5 3 2 2 3 5 7 9 10 10 12 12 13 13 13 14
1 2 3 4 5 6 7 8 10 10 11 12 12 12 13 13 14 15 14 15 15 14 14 13 11 9 7 6 4 2 1 2 4 6 8 9 10 11 12 12 13 13 14
0 2 3 4 5 5 7 8 9 10 11 11 12 12 13 13 14 15 15 15 15 15 14 13 12 10 8 6 4 2 0 1 3 5 7 8 9 10 11 12 13 14 14
0 2 3 4 4 5 6 7 8 9 10 11 12 12 13 13 14 15 15 15 16 16 15 14 13 12 9 7 5 4 2 1 2 4 6 7 8 9 11 11 13 13 13
0 1 3 3 4 5 6 7 8 9 10 10 11 12 13 13 14 15 15 15 16 16 16 15 15 13 11 9 7 5 3 2 2 3 5 6 7 8 10 11 12 13 12
1 1 2 3 3 4 5 6 7 8 9 10 11 12 12 13 14 15 16 15 16 17 17 16 16 14 13 11 9 7 5 3 3 3 4 5 6 8 10 11 12 13 12
1 0 1 2 3 3 4 5 6 7 8 9 10 11 12 13 14 15 16 16 17 17 18 17 17 15 14 13 11 9 6 4 3 3 4 4 5 7 9 10 11 12 12
2 0 1 1 2 3 4 5 6 7 7 8 9 10 12 13 13 14 15 16 17 17 18 18 17 16 14 13 12 10 8 6 4 3 3 4 5 6 7 9 10 12 12
3 2 1 1 2 2 3 4 5 6 7 7 8 9 11 12 13 13 14 15 16 17 18 18 17 17 16 14 13 11 9 7 5 3 2 2 4 5 6 8 9 10 12
4 3 2 2 2 2 2 3 4 5 6 7 8 9 10 11 12 13 13 14 15 16 17 18 17 17 16 15 14 12 10 8 6 5 3 2 2 3 5 7 8 10 11
5 4 4 3 2 2 3 3 4 5 5 6 7 8 9 10 11 12 13 14 15 15 16 17 17 16 16 15 15 13 12 10 8 6 5 3 2 1 3 5 7 8 10
6 5 5 4 3 3 3 2 3 4 5 6 6 7 9 10 11 12 13 13 14 14 15 16 16 16 15 15 15 13 12 11 9 7 5 4 3 1 1 3 5 7 9
Wind_Direction
44 32 21 18 16 14 13 9 4 356 354 354 353 353 352 352 351 350 348 347 343 338 331 321 308 298 292 281 271 255 244 236 230 224 224 222 219 217 214 212 212 212 204
36 24 17 12 8 8 8 5 358 351 351 352 352 351 351 350 348 345 344 342 339 336 328 317 312 302 289 276 265 256 248 239 232 228 227 224 222 219 214 211 210 208 204
25 18 11 6 2 2 1 357 354 353 354 356 353 351 351 349 347 345 342 337 334 329 324 316 311 301 288 276 265 259 251 237 233 231 231 227 223 219 214 211 211 209 207
12 9 6 2 359 356 355 355 355 355 356 356 352 351 352 352 349 345 340 335 332 329 327 320 310 298 286 277 266 257 246 239 234 234 232 228 225 219 213 211 209 210 208
9 5 5 1 357 355 354 356 355 355 356 355 352 352 353 352 349 346 341 339 335 331 328 323 313 300 290 281 270 259 246 238 234 232 230 228 225 217 210 208 210 210 209
7 3 7 3 358 356 355 356 355 355 355 353 352 353 353 351 347 345 343 341 338 334 329 323 314 301 290 282 273 263 251 237 233 230 229 228 222 213 209 210 211 210 208
4 5 6 358 354 354 353 355 355 356 354 352 351 351 352 350 349 347 344 341 337 333 327 321 313 302 290 282 276 266 251 238 234 231 227 224 217 210 209 209 210 208 204
352 356 359 353 353 354 354 355 356 356 353 351 350 351 351 351 348 345 344 341 337 334 330 323 315 303 291 281 274 263 249 243 238 233 227 221 216 211 209 207 207 204 202
354 358 357 354 355 355 356 355 356 355 353 351 348 349 351 351 348 347 345 342 339 337 332 326 320 308 295 284 275 262 253 246 238 235 227 220 215 211 208 203 204 201 199
6 6 1 1 359 358 359 359 360 358 356 355 353 354 354 352 350 347 346 346 344 341 335 330 323 313 301 289 276 264 255 247 238 233 228 222 216 213 209 207 204 200 198
21 13 7 6 6 7 4 2 2 1 1 1 0 359 358 356 354 351 350 350 350 347 343 336 329 320 308 295 279 265 254 245 238 232 228 225 220 215 211 207 202 201 199
21 18 21 15 13 11 8 6 5 5 5 5 3 2 0 359 358 355 355 354 354 353 350 344 338 331 319 302 285 270 255 244 238 230 225 222 218 212 208 206 205 202 200
17 20 23 19 17 14 12 10 8 7 7 6 4 3 2 1 0 0 1 359 358 358 357 352 346 340 330 313 293 278 264 244 234 226 219 217 215 210 207 206 205 204 202
15 24 24 23 20 16 14 11 8 8 8 8 7 6 5 5 5 5 4 4 4 3 2 360 356 352 347 331 311 287 262 239 227 221 216 214 212 209 206 205 205 204 203
13 20 20 22 19 15 14 11 10 10 10 11 11 11 11 10 9 9 8 8 8 7 7 6 4 2 360 349 335 311 261 227 218 216 214 213 211 209 206 206 207 207 204
21 24 22 25 23 20 17 12 12 12 14 15 15 15 15 14 14 13 14 14 13 12 11 12 11 9 7 360 352 341 298 224 212 207 209 210 209 208 207 208 209 208 206
85 31 28 28 29 24 17 12 12 14 18 19 20 21 21 20 19 17 18 19 20 18 17 18 17 16 15 12 12 13 352 213 198 198 202 206 209 212 208 209 207 208 210
65 30 28 28 28 23 17 15 15 17 21 23 23 24 25 24 23 21 23 24 24 23 23 24 24 24 25 29 33 38 51 127 176 189 198 203 208 209 206 208 208 211 211
262 21 25 26 25 21 17 17 19 21 23 25 26 26 27 27 26 25 27 28 28 28 29 30 30 29 30 35 41 46 54 90 152 178 190 197 206 208 203 206 211 212 208
223 15 22 24 21 20 18 20 23 24 27 31 32 31 32 31 30 29 31 32 31 31 31 32 32 33 35 38 42 46 56 82 120 153 173 188 198 205 203 206 210 210 208
196 40 30 26 26 26 25 28 31 31 36 39 35 35 35 34 34 33 33 34 33 32 32 32 33 37 40 42 42 44 53 74 98 133 162 178 184 193 200 206 212 210 208
201 179 48 44 47 38 36 37 36 39 43 42 38 37 36 35 34 34 34 34 33 33 33 34 36 38 40 40 41 44 50 63 78 102 142 171 181 191 201 206 211 214 210
207 196 164 113 79 56 52 48 45 45 44 42 40 38 35 33 32 33 32 31 31 33 35 36 37 39 40 41 43 46 52 60 65 80 111 153 184 197 204 206 210 216 215
199 189 180 153 109 87 85 68 55 48 47 45 41 37 34 32 32 32 31 30 32 34 35 35 35 37 40 42 43 45 49 54 58 66 87 115 170 196 206 212 217 222 225
198 191 183 164 143 123 114 92 70 57 52 48 43 38 34 32 31 29 29 28 30 32 32 32 34 36 39 42 42 44 45 48 54 59 65 74 97 181 215 222 227 232 237
196 189 181 173 162 147 134 110 81 59 50 43 39 34 31 29 27 25 24 24 26 27 28 30 33 35 37 39 41 43 44 46 48 49 50 57 60 67 239 235 239 243 248
Height
5899 5898 5897 5897 5896 5895 5894 5893 5892 5891 5890 5889 5887 5886 5885 5883 5882 5881 5879 5878 5877 5876 5875 5874 5873 5873 5872 5872 5872 5872 5873 5873 5873 5874 5874 5874 5875 5876 5877 5878 5878 5879 5879
5899 5898 5897 5897 5896 5895 5894 5893 5892 5891 5890 5888 5887 5885 5884 5882 5881 5880 5878 5877 5876 5875 5874 5873 5872 5871 5871 5871 5871 5871 5871 5871 5872 5872 5872 5873 5874 5874 5875 5876 5877 5878 5878
5899 5898 5897 5897 5896 5895 5894 5893 5892 5891 5890 5888 5887 5885 5883 5882 5880 5879 5878 5876 5875 5874 5873 5872 5871 5870 5870 5869 5869 5869 5869 5870 5870 5870 5871 5871 5872 5873 5873 5874 5875 5876 5877
5899 5898 5897 5896 5896 5895 5894 5893 5892 5891 5889 5888 5886 5884 5883 5881 5880 5878 5877 5875 5874 5873 5871 5870 5869 5869 5868 5868 5867 5867 5868 5868 5868 5869 5869 5869 5870 5871 5872 5873 5874 5875 5876
5898 5898 5897 5896 5896 5895 5894 5893 5892 5890 5889 5887 5886 5884 5882 5881 5879 5877 5876 5874 5873 5871 5870 5869 5868 5867 5866 5866 5866 5866 5866 5866 5866 5867 5867 5868 5868 5869 5870 5871 5872 5873 5874
5898 5897 5897 5896 5896 5895 5894 5893 5891 5890 5889 5887 5885 5883 5882 5880 5878 5876 5875 5873 5872 5870 5869 5867 5866 5865 5865 5864 5864 5864 5864 5864 5864 5865 5865 5866 5867 5867 5869 5870 5871 5872 5873
5898 5897 5897 5896 5896 5895 5894 5893 5891 5890 5888 5886 5885 5883 5881 5879 5877 5875 5874 5872 5870 5869 5867 5866 5864 5863 5863 5862 5862 5862 5862 5862 5862 5863 5864 5864 5865 5866 5867 5868 5869 5870 5871
5898 5897 5897 5896 5896 5895 5894 5892 5891 5889 5888 5886 5884 5882 5880 5878 5876 5874 5873 5871 5869 5867 5865 5864 5862 5861 5861 5860 5860 5860 5860 5860 5861 5861 5862 5863 5863 5864 5865 5866 5868 5869 5870
5898 5897 5897 5896 5896 5895 5894 5892 5891 5889 5887 5885 5884 5882 5880 5878 5876 5874 5872 5870 5868 5866 5864 5862 5860 5859 5859 5858 5858 5858 5858 5858 5859 5859 5860 5861 5862 5863 5864 5865 5866 5868 5869
5898 5897 5897 5896 5896 5895 5893 5892 5891 5889 5887 5885 5883 5881 5879 5877 5875 5873 5871 5868 5866 5864 5862 5860 5858 5857 5856 5856 5855 5855 5856 5856 5856 5857 5858 5859 5860 5861 5863 5864 5865 5867 5868
5898 5897 5897 5896 5896 5895 5893 5892 5890 5889 5887 5885 5883 5881 5879 5877 5874 5872 5869 5867 5865 5862 5860 5858 5856 5855 5854 5853 5853 5853 5853 5854 5854 5855 5856 5857 5859 5860 5861 5863 5864 5866 5867
5898 5898 5897 5896 5895 5894 5893 5892 5890 5888 5886 5884 5882 5880 5878 5876 5873 5871 5869 5866 5863 5861 5859 5856 5854 5853 5852 5851 5851 5851 5851 5851 5852 5853 5854 5856 5857 5858 5860 5861 5863 5865 5867
5898 5898 5897 5896 5895 5894 5893 5892 5890 5888 5886 5884 5882 5880 5878 5875 5873 5870 5868 5865 5862 5860 5857 5855 5853 5851 5850 5849 5849 5849 5849 5849 5850 5851 5852 5854 5855 5857 5859 5860 5862 5864 5866
5898 5897 5897 5896 5895 5894 5893 5891 5890 5888 5886 5884 5882 5880 5877 5875 5873 5870 5867 5864 5862 5859 5856 5854 5852 5850 5849 5848 5847 5847 5847 5847 5848 5849 5851 5852 5854 5856 5857 5859 5861 5862 5864
5897 5897 5897 5896 5895 5894 5893 5891 5890 5888 5886 5884 5882 5880 5877 5875 5872 5870 5867 5864 5861 5858 5856 5853 5851 5849 5848 5847 5846 5845 5846 5846 5847 5848 5850 5851 5853 5855 5856 5858 5860 5861 5863
5897 5897 5897 5896 5895 5894 5893 5892 5890 5888 5887 5885 5882 5880 5877 5875 5872 5870 5867 5864 5861 5858 5856 5853 5851 5849 5847 5846 5845 5844 5845 5845 5846 5847 5848 5850 5852 5854 5855 5857 5858 5860 5862
5897 5897 5896 5896 5895 5894 5893 5892 5891 5889 5887 5885 5883 5880 5878 5875 5873 5870 5867 5865 5862 5859 5856 5853 5851 5849 5847 5845 5844 5844 5844 5844 5845 5846 5847 5849 5851 5852 5854 5856 5857 5859 5861
5897 5896 5896 5896 5895 5894 5894 5892 5891 5889 5887 5885 5883 5881 5878 5876 5873 5871 5868 5865 5862 5859 5857 5854 5851 5849 5847 5846 5844 5844 5844 5844 5844 5845 5847 5848 5850 5851 5853 5855 5857 5858 5859
5896 5896 5896 5896 5895 5895 5894 5893 5891 5890 5888 5886 5884 5881 5879 5877 5874 5871 5869 5866 5863 5861 5858 5855 5852 5850 5848 5846 5845 5844 5844 5844 5844 5845 5846 5847 5849 5850 5852 5853 5855 5857 5857
5896 5896 5896 5896 5895 5895 5894 5893 5891 5890 5888 5886 5884 5882 5880 5878 5875 5873 5870 5867 5865 5862 5859 5856 5854 5851 5849 5848 5846 5845 5844 5844 5844 5845 5846 5847 5848 5850 5851 5853 5854 5856 5856
5895 5895 5896 5895 5895 5895 5894 5893 5892 5890 5889 5887 5885 5883 5881 5879 5876 5874 5871 5869 5866 5864 5861 5858 5855 5853 5851 5849 5848 5846 5845 5845 5845 5846 5846 5847 5848 5849 5850 5852 5853 5855 5856
5895 5895 5895 5895 5895 5895 5894 5893 5892 5891 5889 5888 5886 5884 5882 5880 5878 5875 5873 5870 5868 5865 5862 5860 5857 5854 5852 5850 5849 5848 5847 5847 5846 5846 5847 5847 5848 5849 5850 5851 5852 5854 5856
5894 5895 5895 5895 5895 5894 5894 5893 5892 5891 5890 5889 5887 5886 5884 5881 5879 5877 5874 5872 5870 5867 5864 5862 5859 5856 5854 5852 5850 5849 5848 5847 5847 5847 5847 5848 5848 5849 5850 5851 5852 5853 5855
5894 5894 5895 5895 5895 5894 5894 5894 5893 5892 5891 5890 5888 5886 5885 5883 5880 5878 5876 5874 5871 5869 5866 5863 5861 5858 5856 5854 5852 5850 5849 5848 5848 5848 5848 5848 5849 5849 5850 5851 5852 5853 5855
5893 5894 5894 5895 5895 5894 5894 5894 5893 5893 5892 5890 5889 5887 5886 5884 5881 5879 5877 5875 5872 5870 5867 5865 5862 5860 5857 5855 5854 5852 5851 5850 5849 5849 5849 5849 5849 5850 5850 5851 5852 5853 5854
5892 5893 5893 5894 5894 5894 5894 5894 5893 5893 5892 5891 5889 5888 5886 5884 5882 5880 5878 5875 5873 5870 5868 5865 5863 5861 5859 5857 5855 5854 5852 5851 5851 5850 5850 5850 5850 5850 5851 5851 5852 5852 5853